Regional Weather Roundup
Issued by NWS

Home | Current Version | Previous Version | Graphics & Text | Print | Product List | Glossary On
Versions: 1 2 3 4 5 6 7 8 9 10 11 12 13 14 15 16 17 18 19 20 21 22 23 24 25 26 27 28 29 30 31 32 33 34 35 36 37 38 39 40 41 42 43 44 45 46 47 48 49 50
000
ASUS43 KOAX 241710
RWRNE

WEATHER ROUNDUP FOR NEBRASKA
NATIONAL WEATHER SERVICE OMAHA NE
1200 PM CDT THU JUL 24 2014

NOTES: SATELLITE DATA IS BEING USED TO AUGMENT CLOUD COVER ABOVE
       12000 FEET.
       "FAIR" INDICATES FEW OR NO CLOUDS BELOW 12,000 FEET WITH NO
       SIGNIFICANT WEATHER AND/OR OBSTRUCTIONS TO VISIBILITY.

  * THESE STATIONS DO NOT REPORT WEATHER SUCH AS RAIN...SNOW OR FOG.

NEZ001>004-019>022-054>056-241800-
NEBRASKA PANHANDLE

CITY           SKY/WX    TMP DP  RH WIND       PRES   REMARKS
SCOTTSBLUFF    PTSUNNY   89  64  43 SE6       29.97F HX  90
ALLIANCE       SUNNY     95  55  26 SW15G22   29.96F HX  93
CHADRON        MOSUNNY   97  53  22 SW14      29.86S HX  94
KIMBALL        SUNNY     94  44  18 W12G22    30.04F HX  90
SIDNEY         SUNNY     98  49  18 SW15G21   30.03S HX  95
$$

NEZ057>060-069>072-079>082-241800-
SOUTHWEST NEBRASKA

CITY           SKY/WX    TMP DP  RH WIND       PRES   REMARKS
NORTH PLATTE   SUNNY     86  66  51 S10       29.96F
IMPERIAL       SUNNY     95  59  30 S13G22    29.97F HX  94
LEXINGTON      SUNNY     83  68  61 S21G26    30.00F
MCCOOK         SUNNY     88  68  51 S12       29.99F HX  91
OGALLALA       SUNNY     88  65  46 S9        29.97S HX  90
$$

NEZ005>010-023>029-035>040-094-241800-
NORTH CENTRAL NEBRASKA

CITY           SKY/WX    TMP DP  RH WIND       PRES   REMARKS
VALENTINE      MOSUNNY   89  67  47 S21G26    29.88F HX  92
AINSWORTH      SUNNY     84  66  54 S24G32    29.92F
BROKEN BOW     SUNNY     84  68  58 S22G30    29.99F
O`NEILL        SUNNY     81  62  52 S24G33    29.97F
ORD            MOSUNNY   80  65  59 SE18G26   30.00F
THEDFORD       SUNNY     85  67  54 S13G24    29.95F
$$

NEZ041-046>049-061>064-073>077-083>087-241800-
SOUTH CENTRAL NEBRASKA

CITY           SKY/WX    TMP DP  RH WIND       PRES   REMARKS
GRAND ISLAND   SUNNY     80  66  62 SE20G26   30.05F
AURORA         SUNNY     79  67  67 SE16G22   30.07S
HASTINGS       SUNNY     81  63  54 S17G25    30.05F
HEBRON         SUNNY     82  64  54 SE15      30.07F
HOLDREGE       SUNNY     82  65  56 SE16G25   30.02F
KEARNEY *      SUNNY     82  66  57 SE20      30.02F
YORK           MOSUNNY   79  66  65 SE18G24   30.10R
$$

NEZ011>018-030>034-042>045-241800-
NORTHEAST NEBRASKA

CITY           SKY/WX    TMP DP  RH WIND       PRES   REMARKS
NORFOLK        SUNNY     79  62  56 S28G33    30.04F
ALBION         SUNNY     76  62  62 SE20G28   30.05F
BLAIR          CLOUDY    74  60  61 SE17      30.09F
COLUMBUS *     MOSUNNY   61  61 100 SE16G22   30.07F
FREMONT        MOSUNNY   79  60  52 SE21G29   30.08F
TEKAMAH        CLOUDY    74  63  68 S20G28    30.04F
WAYNE          MOSUNNY   77  62  59 S24       30.04F
$$

NEZ050>053-065>068-078-088>093-241800-
SOUTHEAST NEBRASKA

CITY           SKY/WX    TMP DP  RH WIND       PRES   REMARKS
LINCOLN        MOSUNNY   82  61  48 SE18      30.13S
OMAHA EPPLEY   CLOUDY    76  60  57 SE17      30.11F
BEATRICE       SUNNY     79  64  59 SE13G18   30.12S
FALLS CITY     SUNNY     79  61  53 SE8       30.14S
NEBRASKA CITY  MOSUNNY   76  59  56 SE8       30.16S
PLATTSMOUTH    PTSUNNY   77  60  56 SE8       30.14F
$$

NEZ044-045-051>053-067-241800-
OMAHA AREA

CITY           SKY/WX    TMP DP  RH WIND       PRES   REMARKS
OMAHA EPPLEY   CLOUDY    76  60  57 SE17      30.11F
BLAIR          CLOUDY    74  60  61 SE17      30.09F
FREMONT        MOSUNNY   79  60  52 SE21G29   30.08F
MILLARD        PTSUNNY   76  61  60 SE15      30.10F
OFFUTT AFB     CLOUDY    76  62  61 SE18      30.11F
PLATTSMOUTH    PTSUNNY   77  60  56 SE8       30.14F
WAHOO          FAIR      79  60  51 SE20      30.10F
$$


USA.gov is the U.S. government's official web portal to all federal, state and local government web resources and services.